Weather History for KROS - February, 2013

Change the Weather History Date:

Monday, February 18, 2013

  Actual Average (KCBG) Record (KCBG)
Temperature  
Mean Temperature 20 °F -  
Max Temperature 31 °F 28 °F 54 °F (1954)
Min Temperature 8 °F 11 °F -19 °F (1956)
Degree Days  
Heating Degree Days 45    
Moisture  
Dew Point 17 °F    
Average Humidity 76    
Maximum Humidity 83    
Minimum Humidity 70    
Precipitation  
Precipitation 0.00 in - - ()
Sea Level Pressure  
Sea Level Pressure 29.59 in    
Wind  
Wind Speed 10 mph (WSW)    
Max Wind Speed 17 mph    
Max Gust Speed 30 mph    
Visibility 10 miles    
Events      
Averages and records for this station are not official NWS values.
T = Trace of Precipitation, MM = Missing Value Source: NWS Daily Summary

Daily Weather History Graph

Daily Weather History Graph

Search for Another Location

Airport or City:

Trip Planner

Search our weather history database for the weather conditions in past years. The results will help you decide how hot, cold, wet, or windy it might be!

Date:

Astronomy

Feb. 18, 2013 Rise Set
Actual Time 7:08 AM CST 5:43 PM CST
Civil Twilight 6:38 AM CST 6:13 PM CST
Nautical Twilight 6:03 AM CST 6:48 PM CST
Astronomical Twilight 5:29 AM CST 7:22 PM CST
Moon 11:20 AM CST (2/18) 1:57 AM CST (2/18)
Length of Visible Light 11h 35m
Length of Day
10h 34m
First Quarter, 58% of the Moon is Illuminated
Feb 18
First Quarter
Feb 25
Full
Mar 4
Last Quarter
Mar 11
New
Mar 19
First Quarter

Hourly Weather History & Observations

Time (CST) Temp. Windchill Dew Point Humidity Pressure Visibility Wind Dir Wind Speed Gust Speed Precip Events Conditions
12:15 AM 25.3 °F 14.7 °F 17.6 °F 72% 29.63 in 10.0 mi SE 11.5 mph 18.4 mph N/A   Clear
12:34 AM 25.3 °F 14.7 °F 17.6 °F 72% 29.62 in 10.0 mi SE 11.5 mph - N/A   Clear
12:55 AM 25.2 °F 14.4 °F 17.6 °F 73% 29.61 in 10.0 mi SE 11.5 mph - N/A   Clear
1:15 AM 25.0 °F 14.2 °F 17.6 °F 74% 29.61 in 10.0 mi SSE 11.5 mph 17.3 mph N/A   Clear
1:34 AM 24.8 °F 14.0 °F 17.6 °F 74% 29.59 in 10.0 mi SE 11.5 mph - N/A   Clear
1:55 AM 24.8 °F 14.6 °F 17.6 °F 74% 29.58 in 10.0 mi SSE 10.4 mph - N/A   Clear
2:14 AM 25.0 °F 14.8 °F 17.8 °F 74% 29.57 in 10.0 mi SE 10.4 mph - N/A   Clear
2:35 AM 24.8 °F 14.0 °F 17.8 °F 75% 29.56 in 10.0 mi SE 11.5 mph - N/A   Clear
2:55 AM 24.8 °F 14.0 °F 18.0 °F 75% 29.55 in 10.0 mi SSE 11.5 mph 18.4 mph N/A   Clear
3:14 AM 24.8 °F 14.0 °F 18.1 °F 76% 29.54 in 10.0 mi SSE 11.5 mph 17.3 mph N/A   Clear
3:35 AM 24.8 °F 13.4 °F 18.1 °F 76% 29.54 in 10.0 mi SSE 12.7 mph - N/A   Clear
3:55 AM 24.8 °F 14.0 °F 18.3 °F 76% 29.53 in 10.0 mi SSE 11.5 mph 16.1 mph N/A   Clear
4:14 AM 24.6 °F 14.4 °F 18.3 °F 77% 29.52 in 10.0 mi SE 10.4 mph - N/A   Clear
4:35 AM 24.8 °F 16.1 °F 18.5 °F 77% 29.52 in 10.0 mi SSE 8.1 mph - N/A   Clear
4:55 AM 25.2 °F 16.5 °F 19.0 °F 78% 29.51 in 10.0 mi SSE 8.1 mph - N/A   Clear
5:14 AM 25.3 °F 16.7 °F 19.0 °F 77% 29.51 in 10.0 mi SSE 8.1 mph - N/A   Clear
5:35 AM 25.7 °F 17.1 °F 19.6 °F 78% 29.51 in 10.0 mi SSE 8.1 mph - N/A   Mostly Cloudy
5:55 AM 26.4 °F 18.0 °F 20.1 °F 77% 29.51 in 10.0 mi SSE 8.1 mph - N/A   Overcast
6:15 AM 26.6 °F 20.0 °F 20.3 °F 77% 29.51 in 10.0 mi SSE 5.8 mph - N/A   Overcast
6:35 AM 27.0 °F 20.5 °F 20.7 °F 77% 29.51 in 10.0 mi South 5.8 mph - N/A   Overcast
6:55 AM 26.6 °F - 20.8 °F 79% 29.51 in 10.0 mi Calm Calm - N/A   Overcast
7:15 AM 27.0 °F 20.5 °F 21.0 °F 78% 29.51 in 10.0 mi South 5.8 mph - N/A   Overcast
7:34 AM 27.0 °F 20.5 °F 21.2 °F 79% 29.51 in 10.0 mi SSE 5.8 mph - N/A   Overcast
7:55 AM 27.0 °F 23.0 °F 21.2 °F 79% 29.50 in 10.0 mi South 3.5 mph - N/A   Overcast
8:15 AM 27.1 °F 19.7 °F 21.7 °F 80% 29.49 in 10.0 mi SSE 6.9 mph - N/A   Overcast
8:34 AM 27.5 °F 21.1 °F 21.7 °F 79% 29.51 in 10.0 mi South 5.8 mph - N/A   Overcast
8:55 AM 27.5 °F 22.2 °F 22.1 °F 80% 29.51 in 10.0 mi South 4.6 mph - N/A   Overcast
9:15 AM 27.9 °F 24.0 °F 22.1 °F 79% 29.51 in 10.0 mi SSW 3.5 mph - N/A   Overcast
9:35 AM 28.6 °F 24.8 °F 22.8 °F 79% 29.51 in 10.0 mi SSW 3.5 mph - N/A   Overcast
9:55 AM 29.3 °F 24.3 °F 23.2 °F 78% 29.52 in 10.0 mi SW 4.6 mph - N/A   Overcast
10:15 AM 29.7 °F 26.1 °F 23.7 °F 79% 29.52 in 10.0 mi SW 3.5 mph - N/A   Overcast
10:35 AM 30.2 °F 24.3 °F 24.6 °F 80% 29.52 in 10.0 mi WSW 5.8 mph - N/A   Overcast
10:55 AM 30.9 °F 24.3 °F 25.2 °F 79% 29.52 in 10.0 mi West 6.9 mph - N/A   Overcast
11:15 AM 31.1 °F 22.4 °F 25.5 °F 80% 29.53 in 10.0 mi West 10.4 mph - N/A   Overcast
11:35 AM 31.1 °F 23.7 °F 25.7 °F 80% 29.53 in 10.0 mi West 8.1 mph - N/A   Overcast
11:54 AM 31.1 °F 21.9 °F 26.1 °F 82% 29.54 in 10.0 mi West 11.5 mph - N/A   Overcast
12:15 PM 31.1 °F 20.9 °F 26.2 °F 82% 29.53 in 10.0 mi West 13.8 mph 18.4 mph N/A   Overcast
12:35 PM 30.7 °F 20.9 °F 26.2 °F 83% 29.53 in 10.0 mi West 12.7 mph 18.4 mph N/A   Overcast
12:55 PM 30.9 °F 19.8 °F 24.8 °F 78% 29.53 in 10.0 mi West 16.1 mph 19.6 mph N/A   Overcast
1:15 PM 30.0 °F 20.5 °F 22.8 °F 75% 29.53 in 10.0 mi WNW 11.5 mph 19.6 mph N/A   Overcast
1:35 PM 30.0 °F 19.5 °F 22.1 °F 72% 29.53 in 10.0 mi West 13.8 mph - N/A   Overcast
1:55 PM 28.9 °F 17.3 °F 21.4 °F 73% 29.54 in 10.0 mi WNW 16.1 mph 19.6 mph N/A   Overcast
2:14 PM 28.0 °F 17.0 °F 20.7 °F 74% 29.55 in 10.0 mi WNW 13.8 mph 21.9 mph N/A   Overcast
2:35 PM 27.3 °F 15.6 °F 20.3 °F 75% 29.56 in 10.0 mi WNW 15.0 mph - N/A   Overcast
2:55 PM 26.4 °F 15.5 °F 19.4 °F 75% 29.57 in 10.0 mi WNW 12.7 mph 18.4 mph N/A   Overcast
3:15 PM 25.5 °F 14.3 °F 18.1 °F 74% 29.58 in 10.0 mi WNW 12.7 mph 20.7 mph N/A   Overcast
3:35 PM 24.6 °F 13.2 °F 17.2 °F 74% 29.59 in 10.0 mi WNW 12.7 mph 20.7 mph N/A   Overcast
3:55 PM 23.5 °F 11.8 °F 16.3 °F 74% 29.60 in 10.0 mi West 12.7 mph 19.6 mph N/A   Overcast
4:15 PM 23.0 °F 11.1 °F 15.8 °F 74% 29.61 in 10.0 mi West 12.7 mph 17.3 mph N/A   Overcast
4:35 PM 22.5 °F 11.1 °F 15.3 °F 74% 29.62 in 10.0 mi West 11.5 mph 17.3 mph N/A   Overcast
5:15 PM 21.2 °F 6.8 °F 14.5 °F 75% 29.63 in 10.0 mi WNW 17.3 mph - N/A   Overcast
5:35 PM 20.5 °F 6.4 °F 13.5 °F 74% 29.65 in 10.0 mi WNW 16.1 mph 23.0 mph N/A   Overcast
5:55 PM 19.8 °F 5.9 °F 12.9 °F 75% 29.66 in 10.0 mi WNW 15.0 mph 23.0 mph N/A   Overcast
6:15 PM 19.4 °F 5.5 °F 12.4 °F 74% 29.66 in 10.0 mi WNW 15.0 mph 23.0 mph N/A   Overcast
6:35 PM 18.5 °F 3.3 °F 11.8 °F 75% 29.67 in 10.0 mi WNW 17.3 mph 21.9 mph N/A   Overcast
6:55 PM 18.0 °F 3.1 °F 10.6 °F 73% 29.67 in 10.0 mi NW 16.1 mph 21.9 mph N/A   Overcast
7:15 PM 17.4 °F 5.4 °F 9.9 °F 72% 29.68 in 10.0 mi NW 10.4 mph 18.4 mph N/A   Overcast
7:35 PM 17.1 °F 4.3 °F 9.3 °F 72% 29.69 in 10.0 mi WNW 11.5 mph 19.6 mph N/A   Overcast
7:55 PM 16.5 °F 4.3 °F 9.3 °F 73% 29.69 in 10.0 mi NW 10.4 mph 19.6 mph N/A   Overcast
8:15 PM 16.2 °F 3.2 °F 8.8 °F 73% 29.70 in 10.0 mi NW 11.5 mph 18.4 mph N/A   Overcast
8:34 PM 15.3 °F 1.4 °F 8.6 °F 75% 29.71 in 10.0 mi NW 12.7 mph 19.6 mph N/A   Overcast
8:55 PM 14.5 °F 1.1 °F 8.1 °F 75% 29.71 in 10.0 mi NW 11.5 mph 19.6 mph N/A   Overcast
9:15 PM 14.4 °F 0.9 °F 7.7 °F 75% 29.72 in 10.0 mi NW 11.5 mph 21.9 mph N/A   Overcast
9:35 PM 13.8 °F 0.2 °F 6.8 °F 74% 29.72 in 10.0 mi NW 11.5 mph 20.7 mph N/A   Overcast
9:55 PM 13.5 °F -2.1 °F 5.9 °F 72% 29.73 in 10.0 mi NW 15.0 mph 21.9 mph N/A   Overcast
10:15 PM 12.2 °F -1.8 °F 4.5 °F 71% 29.73 in 10.0 mi NNW 11.5 mph 23.0 mph N/A   Overcast
10:35 PM 12.0 °F -2.7 °F 3.9 °F 70% 29.73 in 10.0 mi NW 12.7 mph 25.3 mph N/A   Overcast
10:55 PM 10.9 °F -5.4 °F 2.8 °F 70% 29.74 in 10.0 mi NNW 15.0 mph 29.9 mph N/A   Overcast
11:15 PM 10.4 °F -6.0 °F 2.7 °F 71% 29.74 in 10.0 mi NW 15.0 mph 26.5 mph N/A   Overcast
11:35 PM 9.3 °F -6.1 °F 1.8 °F 71% 29.76 in 10.0 mi NW 12.7 mph 19.6 mph N/A   Overcast
11:55 PM 8.6 °F -6.3 °F 1.0 °F 71% 29.77 in 10.0 mi NW 11.5 mph 20.7 mph N/A   Overcast